Time,TemperatureF,DewpointF,PressureIn,WindDirection,WindDirectionDegrees,WindSpeedMPH,WindSpeedGustMPH,Humidity,HourlyPrecipIn,Conditions,Clouds,dailyrainin,SoftwareType,DateUTC
2015-06-03 00:04:00,54.7,49.6,30.21,NNW,348,0.0,2.0,83,0.00,,,0.00,Wunderground v.1.15,2015-06-03 04:04:00,
2015-06-03 00:09:00,54.6,49.2,30.21,NNW,342,1.0,3.0,82,0.00,,,0.00,Wunderground v.1.15,2015-06-03 04:09:00,
2015-06-03 00:14:00,54.5,48.5,30.21,NNW,331,3.0,4.0,80,0.00,,,0.00,Wunderground v.1.15,2015-06-03 04:14:00,
2015-06-03 00:20:00,54.4,48.0,30.21,NNW,328,2.0,3.0,79,0.00,,,0.00,Wunderground v.1.15,2015-06-03 04:20:00,
2015-06-03 00:28:00,54.3,47.6,30.22,NW,321,1.0,4.0,78,0.00,,,0.00,Wunderground v.1.15,2015-06-03 04:28:00,
2015-06-03 00:34:00,54.1,47.0,30.22,NNE,27,2.0,4.0,77,0.00,,,0.00,Wunderground v.1.15,2015-06-03 04:34:00,
2015-06-03 00:41:00,53.9,46.5,30.22,NNW,341,2.0,4.0,76,0.00,,,0.00,Wunderground v.1.15,2015-06-03 04:41:00,
2015-06-03 00:46:00,53.9,46.5,30.22,NE,47,2.0,4.0,76,0.00,,,0.00,Wunderground v.1.15,2015-06-03 04:46:00,
2015-06-03 00:51:00,53.8,46.1,30.22,NNW,340,2.0,3.0,75,0.00,,,0.00,Wunderground v.1.15,2015-06-03 04:51:00,
2015-06-03 00:57:00,53.8,46.4,30.22,NNW,340,2.0,2.0,76,0.00,,,0.00,Wunderground v.1.15,2015-06-03 04:57:00,
2015-06-03 01:04:00,53.7,46.0,30.22,NW,323,1.0,2.0,75,0.00,,,0.00,Wunderground v.1.15,2015-06-03 05:04:00,
2015-06-03 01:11:00,53.5,45.8,30.22,NNW,334,2.0,3.0,75,0.00,,,0.00,Wunderground v.1.15,2015-06-03 05:11:00,
2015-06-03 01:17:00,53.5,45.4,30.22,NNE,27,2.0,3.0,74,0.00,,,0.00,Wunderground v.1.15,2015-06-03 05:17:00,
2015-06-03 01:24:00,53.4,45.3,30.22,NE,35,2.0,5.0,74,0.00,,,0.00,Wunderground v.1.15,2015-06-03 05:24:00,
2015-06-03 01:30:00,53.2,45.1,30.22,NNE,20,2.0,5.0,74,0.00,,,0.00,Wunderground v.1.15,2015-06-03 05:30:00,
2015-06-03 01:36:00,53.2,45.1,30.22,North,360,2.0,5.0,74,0.00,,,0.00,Wunderground v.1.15,2015-06-03 05:36:00,
2015-06-03 01:41:00,53.0,44.9,30.22,NNW,340,3.0,8.0,74,0.00,,,0.00,Wunderground v.1.15,2015-06-03 05:41:00,
2015-06-03 01:49:00,52.8,44.7,30.22,NE,44,3.0,5.0,74,0.00,,,0.00,Wunderground v.1.15,2015-06-03 05:49:00,
2015-06-03 01:54:00,52.6,44.5,30.22,NNE,32,3.0,5.0,74,0.00,,,0.00,Wunderground v.1.15,2015-06-03 05:54:00,
2015-06-03 02:00:00,52.5,44.4,30.23,NNE,26,2.0,3.0,74,0.00,,,0.00,Wunderground v.1.15,2015-06-03 06:00:00,
2015-06-03 02:06:00,52.3,44.3,30.23,NNE,28,2.0,6.0,74,0.00,,,0.00,Wunderground v.1.15,2015-06-03 06:06:00,
2015-06-03 02:12:00,52.2,44.2,30.23,NNE,24,3.0,5.0,74,0.00,,,0.00,Wunderground v.1.15,2015-06-03 06:12:00,
2015-06-03 02:17:00,52.1,44.4,30.23,NNE,19,2.0,2.0,75,0.00,,,0.00,Wunderground v.1.15,2015-06-03 06:17:00,
2015-06-03 02:23:00,52.0,44.3,30.23,NE,34,1.0,3.0,75,0.00,,,0.00,Wunderground v.1.15,2015-06-03 06:23:00,
2015-06-03 02:29:00,51.8,44.1,30.23,NNE,28,2.0,5.0,75,0.00,,,0.00,Wunderground v.1.15,2015-06-03 06:29:00,
2015-06-03 02:35:00,51.7,44.0,30.23,NNW,346,2.0,5.0,75,0.00,,,0.00,Wunderground v.1.15,2015-06-03 06:35:00,
2015-06-03 02:40:00,51.6,43.9,30.23,North,360,1.0,2.0,75,0.00,,,0.00,Wunderground v.1.15,2015-06-03 06:40:00,
2015-06-03 02:46:00,51.6,43.9,30.23,NNW,338,1.0,4.0,75,0.00,,,0.00,Wunderground v.1.15,2015-06-03 06:46:00,
2015-06-03 02:52:00,51.4,43.7,30.23,WNW,292,1.0,2.0,75,0.00,,,0.00,Wunderground v.1.15,2015-06-03 06:52:00,
2015-06-03 02:58:00,51.4,43.7,30.24,NNW,336,1.0,1.0,75,0.00,,,0.00,Wunderground v.1.15,2015-06-03 06:58:00,
2015-06-03 03:03:00,51.3,43.6,30.23,NNW,327,1.0,3.0,75,0.00,,,0.00,Wunderground v.1.15,2015-06-03 07:03:00,
2015-06-03 03:09:00,51.3,43.6,30.24,NNW,329,2.0,2.0,75,0.00,,,0.00,Wunderground v.1.15,2015-06-03 07:09:00,
2015-06-03 03:14:00,51.3,43.6,30.24,NNW,342,2.0,4.0,75,0.00,,,0.00,Wunderground v.1.15,2015-06-03 07:14:00,
2015-06-03 03:20:00,51.2,43.5,30.24,NNE,18,1.0,2.0,75,0.00,,,0.00,Wunderground v.1.15,2015-06-03 07:20:00,
2015-06-03 03:25:00,51.2,43.5,30.24,NNW,335,1.0,2.0,75,0.00,,,0.00,Wunderground v.1.15,2015-06-03 07:25:00,
2015-06-03 03:31:00,51.2,43.5,30.25,NNW,343,0.0,1.0,75,0.00,,,0.00,Wunderground v.1.15,2015-06-03 07:31:00,
2015-06-03 03:36:00,51.2,43.5,30.25,NNW,329,0.0,1.0,75,0.00,,,0.00,Wunderground v.1.15,2015-06-03 07:36:00,
2015-06-03 03:41:00,51.1,43.4,30.25,NE,36,1.0,1.0,75,0.00,,,0.00,Wunderground v.1.15,2015-06-03 07:41:00,
2015-06-03 03:47:00,51.1,43.4,30.24,NNE,13,1.0,1.0,75,0.00,,,0.00,Wunderground v.1.15,2015-06-03 07:47:00,
2015-06-03 03:52:00,51.1,43.4,30.25,NE,38,1.0,1.0,75,0.00,,,0.00,Wunderground v.1.15,2015-06-03 07:52:00,
2015-06-03 03:57:00,51.0,43.4,30.24,NNW,340,1.0,1.0,75,0.00,,,0.00,Wunderground v.1.15,2015-06-03 07:57:00,
2015-06-03 04:03:00,51.0,43.4,30.24,North,351,0.0,1.0,75,0.00,,,0.00,Wunderground v.1.15,2015-06-03 08:03:00,
2015-06-03 04:09:00,50.9,43.6,30.24,North,355,0.0,1.0,76,0.00,,,0.00,Wunderground v.1.15,2015-06-03 08:09:00,
2015-06-03 04:14:00,50.8,43.5,30.25,NNW,340,0.0,1.0,76,0.00,,,0.00,Wunderground v.1.15,2015-06-03 08:14:00,
2015-06-03 04:19:00,50.8,43.5,30.25,NNW,336,1.0,1.0,76,0.00,,,0.00,Wunderground v.1.15,2015-06-03 08:19:00,
2015-06-03 04:24:00,50.7,43.4,30.25,NNE,24,1.0,4.0,76,0.00,,,0.00,Wunderground v.1.15,2015-06-03 08:24:00,
2015-06-03 04:30:00,50.7,43.4,30.25,NNW,334,1.0,1.0,76,0.00,,,0.00,Wunderground v.1.15,2015-06-03 08:30:00,
2015-06-03 04:35:00,50.7,43.4,30.25,NE,46,1.0,3.0,76,0.00,,,0.00,Wunderground v.1.15,2015-06-03 08:35:00,
2015-06-03 04:41:00,50.7,43.4,30.25,NNE,24,1.0,2.0,76,0.00,,,0.00,Wunderground v.1.15,2015-06-03 08:41:00,
2015-06-03 04:46:00,50.7,43.4,30.25,West,280,1.0,3.0,76,0.00,,,0.00,Wunderground v.1.15,2015-06-03 08:46:00,
2015-06-03 04:51:00,50.7,43.4,30.25,NNW,344,1.0,1.0,76,0.00,,,0.00,Wunderground v.1.15,2015-06-03 08:51:00,
2015-06-03 04:57:00,50.6,43.3,30.25,NNE,30,1.0,3.0,76,0.00,,,0.00,Wunderground v.1.15,2015-06-03 08:57:00,
2015-06-03 05:02:00,50.6,43.3,30.25,ENE,76,2.0,4.0,76,0.00,,,0.00,Wunderground v.1.15,2015-06-03 09:02:00,